GW4027 Weather Reports


time (UTC)temp
F
wind
direction
speed
knots
gust
knots
rain 1hr
in
rain 24hr
in
rain mn
in
humidity
%
barometer
mb
20260505152702 50 9 1.7 3.5 0.00 0.00 0.00 77 1012.7
20260505151802 50 13 1.7 5.2 0.00 0.00 0.00 78 1012.5
20260505150902 50 19 0.9 5.2 0.00 0.00 0.00 78 1012.8
20260505124502 51 31 1.7 5.2 0.00 0.00 0.00 79 1012.7
20260505123602 51 10 1.7 3.5 0.00 0.00 0.00 80 1012.8
20260505122723 50 34 1.7 5.2 0.00 0.00 0.00 81 1012.7
20260505121802 50 9 1.7 6.1 0.00 0.00 0.00 80 1012.6
20260505120903 51 9 1.7 5.2 0.00 0.00 0.00 81 1012.5
20260505120003 50 12 0.9 3.5 0.00 0.00 0.00 82 1012.6
20260505115402 51 343 0.9 2.6 0.00 0.00 0.00 83 1012.7
20260505114524 50 11 1.7 5.2 0.00 0.00 0.00 84 1012.8
20260505113602 50 360 1.7 6.1 0.00 0.00 0.00 84 1012.9
20260505112703 50 6 1.7 5.2 0.00 0.00 0.00 85 1013.1
20260505111803 50 11 2.6 5.2 0.00 0.00 0.00 83 1012.8
20260505110903 50 6 1.7 5.2 0.00 0.00 0.00 82 1012.8
20260505101824 52 29 1.7 3.5 0.00 0.00 0.00 74 1012.7
20260505100902 51 23 1.7 7.8 0.00 0.00 0.00 77 1012.9
20260505100024 51 17 0.9 1.7 0.00 0.00 0.00 81 1013.0
20260505095403 50 33 0.9 1.7 0.00 0.00 0.00 81 1013.0
20260505094503 50 31 0.9 2.6 0.00 0.00 0.00 81 1012.9
20260505093602 50 22 1.7 3.5 0.00 0.00 0.00 81 1013.0
20260505092702 50 6 0.9 2.6 0.00 0.00 0.00 81 1012.9
20260505091803 50 29 0.9 2.6 0.00 0.00 0.00 81 1013.1
20260505090902 50 12 0.9 2.6 0.00 0.00 0.00 81 1013.1
20260505090002 50 10 1.7 5.2 0.00 0.00 0.00 81 1012.9
20260505085402 50 16 1.7 3.5 0.00 0.00 0.00 81 1013.0
20260505084502 50 16 1.7 5.2 0.00 0.00 0.00 81 1013.0
20260505083623 50 349 1.7 5.2 0.00 0.00 0.00 81 1013.0
20260505082723 50 8 1.7 3.5 0.00 0.00 0.00 81 1013.0
20260505081802 50 17 1.7 3.5 0.00 0.00 0.00 81 1013.1
20260505080903 50 24 1.7 3.5 0.00 0.00 0.00 81 1013.0
20260505080002 49 21 1.7 5.2 0.00 0.00 0.00 81 1012.8
20260505075402 49 26 1.7 3.5 0.00 0.00 0.00 81 1012.8
20260505074502 49 17 1.7 3.5 0.00 0.00 0.00 80 1012.9
20260505073603 50 5 1.7 3.5 0.00 0.00 0.00 80 1012.9
20260505072703 49 1 1.7 3.5 0.00 0.00 0.00 79 1012.7
20260505071802 50 356 1.7 3.5 0.00 0.00 0.00 80 1012.9
20260505070903 49 6 1.7 3.5 0.00 0.00 0.00 80 1012.7
20260505070002 49 22 1.7 3.5 0.00 0.00 0.00 81 1012.7
20260505065403 49 28 1.7 3.5 0.00 0.00 0.00 81 1012.8
20260505064503 49 13 1.7 6.1 0.00 0.00 0.00 82 1012.9
20260505063603 49 12 0.9 2.6 0.00 0.00 0.00 82 1012.9
20260505062702 48 17 0.9 3.5 0.00 0.00 0.00 83 1012.8
20260505061802 48 6 1.7 5.2 0.00 0.00 0.00 84 1012.9
20260505060902 48 49 1.7 3.5 0.00 0.00 0.00 84 1012.8
20260505060003 48 3 0.9 3.5 0.00 0.00 0.00 85 1012.6
20260505055402 48 32 0.9 3.5 0.00 0.00 0.00 86 1012.7
20260505054502 48 42 0.9 3.5 0.00 0.00 0.00 86 1012.6
20260505053624 48 6 1.7 6.1 0.00 0.00 0.00 86 1012.7
20260505052724 48 32 1.7 3.5 0.00 0.00 0.00 87 1012.7
20260505051803 48 31 1.7 5.2 0.00 0.00 0.00 86 1012.5
20260505050903 48 10 0.9 3.5 0.00 0.00 0.00 86 1012.5
20260505040903 48 6 1.7 5.2 0.00 0.00 0.00 86 1012.4
20260505040003 48 22 1.7 5.2 0.00 0.00 0.00 87 1012.5
20260505035403 48 16 1.7 5.2 0.00 0.00 0.00 87 1012.6
20260505034503 48 6 1.7 3.5 0.00 0.00 0.00 87 1012.5
20260505033603 48 3 1.7 6.1 0.00 0.00 0.00 86 1012.5
20260505032702 48 13 1.7 6.1 0.00 0.00 0.00 86 1012.5
20260505031803 48 31 0.9 5.2 0.00 0.00 0.00 86 1012.4
20260505030924 48 21 0.9 3.5 0.00 0.00 0.00 86 1012.7
20260505030003 48 26 0.9 3.5 0.00 0.00 0.00 86 1012.4
20260505025424 48 21 0.9 2.6 0.00 0.00 0.00 86 1012.6
20260505024503 48 29 0.0 1.7 0.00 0.00 0.00 87 1012.6
20260505023603 47 2 0.0 1.7 0.00 0.00 0.00 86 1012.5
20260505022703 47 16 0.0 1.7 0.00 0.00 0.00 86 1012.7
20260505021803 48 25 0.0 1.7 0.00 0.00 0.00 85 1012.6
20260505020903 47 19 0.0 1.7 0.00 0.00 0.00 85 1012.8
20260505020003 47 2 0.0 1.7 0.00 0.00 0.00 85 1013.0
20260505015424 47 12 0.0 1.7 0.00 0.00 0.00 84 1012.8
20260505014503 47 28 0.0 1.7 0.00 0.00 0.00 85 1013.0
20260505013603 46 23 0.0 0.9 0.00 0.00 0.00 87 1012.9
20260505012703 45 185 0.0 1.7 0.00 0.00 0.00 87 1013.1
20260505011824 45 180 0.9 1.7 0.00 0.00 0.00 86 1013.1
20260505010903 45 190 0.0 0.9 0.00 0.00 0.00 85 1013.1
20260505010003 45 193 0.0 0.9 0.00 0.00 0.00 85 1013.1
20260505005403 45 184 0.0 0.9 0.00 0.00 0.00 85 1013.3
20260505004503 45 191 0.0 0.9 0.00 0.00 0.00 85 1013.2
20260505003624 45 181 0.0 0.9 0.00 0.00 0.00 85 1013.1
20260505002724 45 158 0.0 0.9 0.00 0.00 0.00 85 1013.2
20260505001824 45 171 0.0 0.9 0.00 0.00 0.00 86 1013.0
20260505000924 45 189 0.0 0.9 0.00 0.00 0.00 87 1013.2
20260505000003 45 0 0.0 0.0 0.00 0.00 0.00 87 1013.4
20260504235424 46 0 0.0 0.0 0.00 0.00 0.00 87 1013.3
20260504234503 47 33 0.0 0.9 0.00 0.00 0.00 88 1013.2
20260504233603 46 66 0.0 0.9 0.00 0.00 0.00 90 1013.2
20260504232703 45 50 0.0 0.9 0.00 0.00 0.00 91 1013.1
20260504231803 45 37 0.0 0.9 0.00 0.00 0.00 91 1013.1
20260504230903 45 0 0.0 0.0 0.00 0.00 0.00 91 1013.0
20260504230003 45 0 0.0 0.0 0.00 0.00 0.00 91 1013.1
20260504225403 46 0 0.0 0.0 0.00 0.00 0.00 91 1013.1
20260504224503 46 175 0.0 0.9 0.00 0.00 0.00 90 1013.1
20260504223603 46 178 0.0 0.9 0.00 0.00 0.00 91 1013.3
20260504222703 46 173 0.0 0.9 0.00 0.00 0.00 92 1013.3
20260504221803 46 166 0.0 0.9 0.00 0.00 0.00 92 1013.2
20260504220924 46 147 0.0 0.9 0.00 0.00 0.00 92 1013.6
20260504220003 46 0 0.0 0.0 0.00 0.00 0.00 91 1013.3
20260504215403 47 0 0.0 0.0 0.00 0.00 0.00 91 1013.2
20260504214503 46 194 0.0 0.9 0.00 0.00 0.00 91 1013.6
20260504213603 46 178 0.0 0.9 0.00 0.00 0.00 90 1013.4
20260504212703 47 176 0.0 1.7 0.00 0.00 0.00 91 1013.4
20260504211803 47 0 0.0 0.0 0.00 0.00 0.00 90 1013.4
20260504210924 48 115 0.0 0.9 0.00 0.00 0.00 89 1013.4
20260504210003 48 193 0.0 0.9 0.00 0.00 0.00 89 1013.5
20260504205403 48 0 0.0 0.0 0.00 0.00 0.00 89 1013.6
20260504204503 48 0 0.0 0.0 0.00 0.00 0.00 88 1013.5
20260504203624 48 192 0.0 0.9 0.00 0.00 0.00 88 1013.6
20260504202703 49 33 0.0 0.9 0.00 0.00 0.00 88 1013.4
20260504201803 49 102 0.0 0.9 0.00 0.00 0.00 87 1013.4
20260504200903 49 185 0.0 0.9 0.00 0.00 0.00 87 1013.4
20260504200003 50 210 0.0 0.9 0.00 0.00 0.00 86 1013.4
20260504195403 50 39 0.0 0.9 0.00 0.00 0.00 85 1013.3
20260504194503 50 0 0.0 0.0 0.00 0.00 0.00 83 1013.2
20260504193603 51 0 0.0 0.0 0.00 0.00 0.00 82 1013.2
20260504192703 51 54 0.0 0.9 0.00 0.00 0.00 82 1013.2
20260504191803 51 107 0.0 0.9 0.00 0.00 0.00 81 1013.0
20260504190903 51 357 0.0 0.9 0.00 0.00 0.00 82 1013.0
20260504190003 51 0 0.0 0.0 0.00 0.00 0.00 81 1013.3
20260504185403 51 1 0.0 0.9 0.00 0.00 0.00 81 1013.1
20260504184503 51 1 0.0 0.9 0.00 0.00 0.00 81 1013.0
20260504183603 51 0 0.0 0.0 0.00 0.00 0.00 81 1013.0
20260504182703 51 212 0.0 0.9 0.00 0.00 0.00 81 1012.9
20260504181803 52 246 0.0 0.9 0.00 0.00 0.00 80 1013.0
20260504180903 52 123 0.0 0.9 0.00 0.00 0.00 80 1012.8
20260504180003 52 271 0.0 0.9 0.00 0.00 0.00 81 1012.9
20260504175424 52 225 0.0 0.9 0.00 0.00 0.00 81 1012.9
20260504174503 52 336 0.0 0.9 0.00 0.00 0.00 81 1012.8
20260504173603 52 17 0.9 1.7 0.00 0.00 0.00 82 1012.8
20260504172724 52 165 0.0 1.7 0.00 0.00 0.00 80 1012.8
20260504171803 53 170 0.0 0.9 0.00 0.00 0.00 80 1012.9
20260504170903 53 180 0.0 1.7 0.00 0.00 0.00 80 1013.0